Location: Lombard
(41.8800°N, 88.0080°W)
Time: 05:32:52
(UTC-05:00)

Vanguard 2 Rocket - Pass Details

Date: 01 March 2024
Orbit: 555 x 3307 km, 32.9° (Epoch: 12 April)

Event Time Altitude Azimuth Distance (km) Brightness Sun altitude
Rises 15:25:49 0° 262° (W) 4,191 11.4 22.8°
Reaches altitude 10° 15:28:15 10° 257° (WSW) 3,501 11.4 22.4°
Maximum altitude 15:37:21 54° 184° (S) 2,391 9.7 21.0°
Drops below altitude 10° 15:52:53 10° 114° (ESE) 5,751 10.7 18.5°
Sets 15:58:10 0° 111° (ESE) 7,035 11.0 17.7°
